[[{"header":{"parameterUnit":"m.s-1","parameterCategory":1,"la1":30.2991,"la2":30.254,"lo1":-89.0895,"lo2":-89.0444,"dy":0.0017,"dx":0.0017,"nx":28,"ny":28,"refTime":"2023-08-08T09:00:00:Z","depth":0,"parameterNumber":2,"parameterNumberName":"U-component_of_WINDS"},"data":[0,0,0,0,0,0,0,0,0,0,0,0,0,0,0,0,0,0,0,0,0,0,0,0,0,0,0,0,0,0,0,0,0,0,0,0,0,0,0,0,0,0,0,0,0,0,0,0,0,0,0,0,0,0,0,0,0,0,2.0845,2.0846,0,2.0864,2.0864,2.0865,2.0794,2.0792,2.079,2.0788,2.081,2.0813,2.0815,0,0,0,0,0,0,0,0,0,0,0,0,0,2.0749,2.0751,2.0845,2.0846,2.0846,2.0864,2.0864,2.0865,2.0795,2.0792,2.079,2.0787,2.0809,2.0812,2.0815,0,0,0,0,0,0,0,0,0,0,0,0,0,2.0781,2.0751,2.0845,2.0813,2.081,2.0864,2.0864,2.0865,2.0795,2.0792,2.0789,2.0786,2.0808,2.0812,2.0816,2.0902,0,0,2.0827,2.0829,0,0,0,0,0,0,0,0,2.078,2.0785,2.0818,2.0815,2.0812,2.0824,2.0838,2.0877,2.0796,2.0801,2.0788,2.0784,2.0817,2.082,2.0831,2.0903,2.0904,2.0828,2.083,2.0832,2.0833,0,0,0,0,0,0,0,2.0777,2.0784,2.0853,2.0818,2.0815,2.0797,2.0799,2.0845,2.0827,2.08,2.0795,2.0798,2.0815,2.0827,2.0831,2.0904,2.0828,2.0831,2.0833,2.0835,2.1044,2.1048,0,0,0,0,0,0,2.0779,2.0782,2.0852,2.0853,2.0788,2.0802,2.0803,2.0823,2.0826,2.0823,2.0801,2.0795,2.0822,2.0826,2.0831,2.0929,2.0832,2.0835,2.0837,2.1041,2.1045,2.1049,0,0,0,0,0,0,2.0777,2.0786,2.0851,2.0816,2.0823,2.0807,2.083,2.0825,2.0837,2.0826,2.0823,2.0817,2.082,2.0826,2.0884,2.0929,2.0837,2.084,2.1037,2.1042,2.1047,2.1129,0,0,0,0,0,0,2.0775,2.0786,2.0819,2.0818,2.0826,2.0904,2.0833,2.0828,2.0843,2.0836,2.084,2.0838,2.0818,2.0879,2.0888,2.0933,2.0843,2.1033,2.104,2.1045,2.1122,2.1136,2.1148,0,0,0,0,0,2.0772,2.0843,2.0821,2.083,2.0867,2.0907,2.0912,2.0887,2.0848,2.088,2.0872,2.0838,2.0923,2.0885,2.0895,2.0942,2.103,2.1038,2.1045,2.1116,2.1134,2.1148,0,0,0,0,0,0,2.0852,2.0842,2.0818,2.0891,2.09,2.0895,2.0936,2.0906,2.0927,2.092,2.0888,2.089,2.0953,2.0953,2.0911,2.1024,2.097,2.098,2.1021,2.1037,2.105,2.1048,2.0846,0,0,0,0,0,2.0878,2.0912,2.0901,2.0967,2.0972,2.0953,2.097,2.0949,2.0958,2.0962,2.0959,2.0969,2.0998,2.1018,2.1044,2.1122,2.112,2.1159,2.1172,2.1183,2.1191,2.1229,2.1245,2.1073,2.1073,2.1073,0,0,2.0933,2.0931,2.0955,2.0983,2.0987,2.1022,2.0957,2.0998,2.1023,2.0969,2.1022,2.102,2.1029,2.1097,2.1126,2.1099,2.1238,2.1192,2.1201,2.1203,2.1238,2.1255,2.1269,2.1078,2.1077,2.1076,0,0,2.1049,2.1053,2.1105,2.111,2.1117,2.1103,2.1116,2.1115,2.1111,2.1164,2.1123,2.1152,2.1203,2.121,2.122,2.1335,2.1303,2.1345,2.1412,2.145,2.1463,2.1475,2.1513,2.1528,2.1353,2.1354,2.1354,0,2.1117,2.1167,2.1137,2.1178,2.119,2.1141,2.1193,2.12,2.1216,2.1225,2.1194,2.1254,2.1258,2.1324,2.1351,2.1363,2.1374,2.1344,2.1463,2.1475,2.1486,2.1522,2.1536,2.1358,2.1358,2.1357,2.1357,0,2.1247,2.1282,2.1324,2.1337,2.1355,2.1402,2.1378,2.1399,2.1376,2.1366,2.1418,2.142,2.1443,2.1458,2.1438,2.1521,2.1503,2.1469,2.1414,2.1507,2.154,2.1554,2.1365,2.1364,2.1362,2.1361,0,0,2.1417,2.141,2.1426,2.1429,2.1432,2.1458,2.1502,2.1523,2.1541,2.1553,2.1587,2.163,2.1596,2.1608,2.1587,2.162,2.1707,2.1581,2.158,2.1602,2.1796,2.1821,2.1837,2.1686,2.1688,2.1691,2.1794,0,2.1529,2.1602,2.1574,2.1649,2.168,2.1631,2.1669,2.1674,2.1665,2.1689,2.1679,2.1708,2.1663,2.1669,2.17,2.169,2.1745,2.1683,2.1717,2.1718,2.1714,2.1855,2.1882,2.198,2.1807,2.181,2.1811,0,2.167,2.1684,2.1761,2.1754,2.1766,2.18,2.1815,2.184,2.1844,2.1834,2.1845,2.1816,2.1858,2.1803,2.1859,2.1816,2.1829,2.1826,2.1829,2.183,2.177,2.1858,2.2011,2.2025,2.1832,2.183,2.1829,0,2.1782,2.1821,2.1871,2.1876,2.187,2.1895,2.1894,2.1894,2.1907,2.1921,2.1929,2.1948,2.1959,2.1974,2.195,2.1913,2.2008,2.1953,2.2,2.2001,2.2022,2.2021,2.2177,2.2033,2.2033,2.2033,2.2032,0,2.1909,2.1958,2.192,2.1952,2.2003,2.1971,2.2024,2.2017,2.2017,2.2045,2.2006,2.2033,2.2001,2.2025,2.2008,2.2054,2.206,2.2053,2.2047,2.2055,2.2056,2.2062,2.2054,2.2036,2.2036,2.2035,2.2034,0,2.2043,2.2021,2.2071,2.206,2.2058,2.2097,2.2087,2.2115,2.2101,2.2137,2.2144,2.2123,2.2149,2.2126,2.2153,2.214,2.2202,2.2188,2.22,2.2195,2.2243,2.2238,2.2407,2.2427,2.2273,2.2274,2.2275,0,2.2125,2.216,2.2152,2.2166,2.2167,2.2192,2.2204,2.2173,2.2188,2.2192,2.2219,2.2241,2.2257,2.23,2.2287,2.2306,2.2291,2.2349,2.2294,2.2299,2.2289,2.2286,2.2288,2.236,2.2362,2.2363,2.2364,0,2.2271,2.2257,2.2276,2.2289,2.2304,2.2314,2.2321,2.2336,2.2304,2.2322,2.2346,2.2358,2.2383,2.2404,2.2418,2.2417,2.2385,2.2382,2.2393,2.2401,2.2406,2.2401,2.2228,2.2378,2.2377,2.2376,2.2375,2.2374,2.238,2.2407,2.2404,2.2425,2.2426,2.2433,2.2457,2.2445,2.2464,2.248,2.2461,2.249,2.249,2.2505,2.2507,2.253,2.2506,2.2523,2.2527,2.2532,2.2537,2.2403,2.2533,2.2532,2.2532,2.2532,2.2531,0,2.2522,2.2516,2.2536,2.2544,2.256,2.2527,2.2532,2.2548,2.2573,2.2576,2.2591,2.2617,2.2637,2.2625,2.2642,2.2662,2.2648,2.2667,2.2665,2.2664,2.2559,2.2546,2.2678,2.2678,2.2678,2.2678,2.2678,2.2678,2.2597,2.2641,2.2626,2.2669,2.2664,2.269,2.2696,2.2701,2.2702,2.2733,2.2748,2.2739,2.2735,2.275,2.2767,2.2762,2.277,2.2794,2.2785,2.2687,2.2672,2.2658,2.2646,2.2797,2.2797,2.2887,2.2888,2.2889]},{"header":{"parameterUnit":"m.s-1","parameterCategory":1,"la1":30.2991,"la2":30.254,"lo1":-89.0895,"lo2":-89.0444,"dy":0.0017,"dx":0.0017,"nx":28,"ny":28,"refTime":"2023-08-08T09:00:00:Z","depth":0,"parameterNumber":3,"parameterNumberName":"V-component_of_WINDS"},"data":[0,0,0,0,0,0,0,0,0,0,0,0,0,0,0,0,0,0,0,0,0,0,0,0,0,0,0,0,0,0,0,0,0,0,0,0,0,0,0,0,0,0,0,0,0,0,0,0,0,0,0,0,0,0,0,0,0,0,6.0617,6.0617,0,6.0648,6.0649,6.0649,6.0578,6.0576,6.0574,6.0572,6.06,6.0603,6.0606,0,0,0,0,0,0,0,0,0,0,0,0,0,6.0489,6.0492,6.0617,6.0617,6.0617,6.0648,6.0649,6.0649,6.0579,6.0576,6.0573,6.0571,6.0599,6.0603,6.0606,0,0,0,0,0,0,0,0,0,0,0,0,0,6.0535,6.0493,6.0616,6.0586,6.0584,6.0648,6.0649,6.0649,6.0579,6.0576,6.0572,6.0569,6.0598,6.0603,6.0607,6.0701,0,0,6.062,6.0622,0,0,0,0,0,0,0,0,6.0533,6.054,6.059,6.0588,6.0586,6.0606,6.0614,6.0667,6.058,6.0581,6.0572,6.0568,6.0605,6.0608,6.0622,6.0703,6.0704,6.062,6.0623,6.0625,6.0626,0,0,0,0,0,0,0,6.0529,6.0538,6.0629,6.0591,6.0588,6.0569,6.0572,6.0624,6.0611,6.058,6.0575,6.058,6.0603,6.0618,6.0622,6.0704,6.062,6.0624,6.0627,6.0628,6.0862,6.0865,0,0,0,0,0,0,6.0531,6.0536,6.0628,6.063,6.055,6.0574,6.0577,6.0603,6.0611,6.0609,6.0583,6.0577,6.0612,6.0617,6.0623,6.0731,6.0625,6.0629,6.0631,6.0858,6.0862,6.0866,0,0,0,0,0,0,6.0528,6.054,6.0627,6.0582,6.0591,6.058,6.0609,6.0605,6.062,6.0613,6.061,6.0601,6.0609,6.0616,6.0682,6.0731,6.0631,6.0635,6.0854,6.0859,6.0864,6.0951,0,0,0,0,0,0,6.0525,6.0539,6.0577,6.0583,6.0594,6.0687,6.0612,6.0608,6.0628,6.062,6.0629,6.0627,6.0607,6.0676,6.0686,6.0736,6.0638,6.0849,6.0856,6.0863,6.0944,6.0959,6.0972,0,0,0,0,0,6.0521,6.06,6.0579,6.059,6.064,6.069,6.0696,6.0674,6.0633,6.0668,6.0663,6.0626,6.0725,6.0683,6.0694,6.0746,6.0846,6.0854,6.0862,6.0938,6.0956,6.0972,0,0,0,0,0,0,6.0598,6.06,6.0577,6.0661,6.0676,6.0678,6.0723,6.0694,6.0721,6.0712,6.0682,6.0684,6.0755,6.0757,6.071,6.0836,6.0778,6.0789,6.0832,6.0849,6.0863,6.086,6.0642,0,0,0,0,0,6.0625,6.0667,6.0666,6.074,6.0749,6.0735,6.0756,6.0737,6.0751,6.0757,6.0757,6.0771,6.0804,6.0827,6.0858,6.0945,6.0944,6.0985,6.0999,6.1011,6.102,6.1063,6.108,6.0893,6.0893,6.0893,0,0,6.0681,6.0687,6.0715,6.0756,6.0765,6.0807,6.0741,6.0789,6.0819,6.0764,6.0825,6.0826,6.0839,6.0915,6.0948,6.0919,6.1072,6.1021,6.1031,6.1033,6.1073,6.1091,6.1106,6.0898,6.0897,6.0897,0,0,6.0804,6.0814,6.0875,6.0886,6.0902,6.0892,6.0907,6.0914,6.0912,6.0974,6.0932,6.0967,6.1027,6.1037,6.105,6.1176,6.1142,6.1187,6.1259,6.1301,6.1316,6.1329,6.1371,6.1387,6.1196,6.1196,6.1197,0,6.087,6.0934,6.091,6.096,6.0978,6.0931,6.0991,6.1003,6.1028,6.104,6.1007,6.108,6.1086,6.1162,6.1192,6.1206,6.1219,6.1185,6.1316,6.1329,6.134,6.138,6.1396,6.1202,6.1201,6.12,6.12,0,6.1014,6.1058,6.1105,6.1131,6.1154,6.1209,6.1191,6.1217,6.1197,6.119,6.1251,6.1257,6.1287,6.1304,6.1284,6.1377,6.1358,6.1322,6.1262,6.1364,6.14,6.1416,6.1209,6.1207,6.1206,6.1204,0,0,6.1185,6.1196,6.1214,6.1223,6.1237,6.127,6.1322,6.1352,6.1374,6.1392,6.1433,6.1485,6.145,6.1465,6.1446,6.1484,6.1579,6.1442,6.1442,6.1465,6.1678,6.1704,6.1722,6.1558,6.156,6.1563,6.1676,0,6.1304,6.1394,6.1374,6.1462,6.1501,6.1457,6.1501,6.1514,6.1508,6.1539,6.1533,6.1569,6.1522,6.1531,6.1566,6.156,6.1621,6.1552,6.1593,6.1595,6.1588,6.1741,6.1769,6.1875,6.1691,6.1693,6.1695,0,6.1455,6.1479,6.1571,6.1576,6.1592,6.1633,6.1657,6.1689,6.1701,6.1694,6.1711,6.1684,6.1733,6.1675,6.1741,6.1694,6.171,6.171,6.1713,6.1714,6.1649,6.1743,6.1909,6.1924,6.1718,6.1716,6.1714,0,6.1567,6.1623,6.1684,6.1695,6.1703,6.1732,6.1737,6.1746,6.1764,6.1786,6.1797,6.1825,6.1839,6.1859,6.1839,6.18,6.1908,6.1849,6.1901,6.1902,6.1924,6.1922,6.2091,6.1939,6.1939,6.1938,6.1938,0,6.17,6.1758,6.1735,6.1772,6.1834,6.181,6.1871,6.1871,6.1879,6.1914,6.1878,6.1911,6.1885,6.1916,6.1901,6.1956,6.1963,6.1957,6.1952,6.1959,6.1959,6.1967,6.1958,6.1943,6.1942,6.1941,6.194,0,6.1835,6.1822,6.1886,6.1889,6.1891,6.1936,6.1937,6.1971,6.1963,6.2008,6.2017,6.2004,6.2039,6.2022,6.2058,6.2047,6.2118,6.2104,6.2114,6.2109,6.2161,6.2155,6.2339,6.2361,6.2197,6.2199,6.22,0,6.192,6.1963,6.197,6.1991,6.1998,6.2033,6.2052,6.2029,6.205,6.2066,6.2097,6.2129,6.2152,6.2209,6.2202,6.2228,6.2213,6.2275,6.2216,6.2221,6.221,6.2207,6.221,6.2286,6.2288,6.229,6.2291,0,6.207,6.2061,6.209,6.2117,6.2141,6.216,6.2177,6.2196,6.2173,6.2198,6.2233,6.2251,6.2287,6.2318,6.2341,6.2344,6.2313,6.231,6.2323,6.2329,6.2332,6.2328,6.2143,6.2305,6.2304,6.2303,6.2302,6.2302,6.218,6.2215,6.2225,6.2258,6.2268,6.2284,6.2315,6.2311,6.234,6.2368,6.2353,6.2392,6.2401,6.2429,6.2436,6.2466,6.2441,6.246,6.2465,6.2469,6.2475,6.233,6.247,6.247,6.2469,6.2469,6.2469,0,6.2326,6.233,6.2361,6.2385,6.241,6.2381,6.2397,6.2419,6.2455,6.2467,6.2491,6.2529,6.2559,6.2554,6.258,6.2605,6.2591,6.2612,6.2609,6.2609,6.2497,6.2482,6.2623,6.2623,6.2623,6.2623,6.2623,6.2623,6.2404,6.2461,6.2454,6.2514,6.2517,6.2557,6.2568,6.2582,6.259,6.2636,6.266,6.2657,6.2661,6.2688,6.2712,6.271,6.272,6.2746,6.2738,6.2633,6.2618,6.2603,6.2588,6.2749,6.2749,6.2847,6.2848,6.2849]}]]